Cortez, CO

6:25 PM MDT on October 23, 2017 (GMT -0600)
Cortez Municipal

Weather History for KCEZ - October, 2011

Change the Weather History Date:

Thursday, October 27, 2011

  Actual Average Record
Temperature  
Mean Temperature 40 °F 44 °F  
Max Temperature 52 °F 61 °F 75 °F (2001)
Min Temperature 28 °F 28 °F 15 °F (2012)
Degree Days  
Heating Degree Days 26 21  
Month to date heating degree days 424  
Since 1 July heating degree days 596  
Cooling Degree Days 0 0  
Month to date cooling degree days 0  
Year to date cooling degree days 426  
Moisture  
Dew Point 29 °F    
Average Humidity 71    
Maximum Humidity 92    
Minimum Humidity 43    
Precipitation  
Precipitation 0.00 in 0.02 in 0.58 in (1998)
Month to date precipitation 1.08  
Year to date precipitation 11.30  
Sea Level Pressure  
Sea Level Pressure 30.09 in    
Wind  
Wind Speed 2 mph (SE)    
Max Wind Speed 13 mph    
Max Gust Speed 16 mph    
Visibility 10 miles    
Events      
T = Trace of Precipitation, MM = Missing Value Source: NWS Daily Summary

Daily Weather History Graph

Daily Weather History Graph

Search for Another Location

Airport or City:

Trip Planner

Search our weather history database for the weather conditions in past years. The results will help you decide how hot, cold, wet, or windy it might be!

Date:

Astronomy

Oct. 27, 2011 Rise Set
Actual Time 7:33 AM MDT 6:22 PM MDT
Civil Twilight 7:07 AM MDT 6:49 PM MDT
Nautical Twilight 6:36 AM MDT 7:19 PM MDT
Astronomical Twilight 6:06 AM MDT 7:49 PM MDT
Moon 8:38 AM MDT (10/27) 6:57 PM MDT (10/27)
Length of Visible Light 11h 42m
Length of Day
10h 48m
New Moon, 1% of the Moon is Illuminated
Oct 27
New Moon
Nov 2
First Quarter
Nov 10
Full
Nov 18
Last Quarter
Nov 24
New

Hourly Weather History & Observations

Time (MDT) Temp. Windchill Dew Point Humidity Pressure Visibility Wind Dir Wind Speed Gust Speed Precip Events Conditions
12:53 AM 37.9 °F - 30.0 °F 73% 30.03 in 10.0 mi Calm Calm - N/A   Overcast
2:53 AM 34.0 °F 31.0 °F 28.9 °F 82% 30.06 in 10.0 mi Variable 3.5 mph - N/A   Clear
3:53 AM 34.0 °F - 28.0 °F 79% 30.02 in 10.0 mi Calm Calm - N/A   Partly Cloudy
4:53 AM 30.9 °F - 27.0 °F 85% 30.03 in 10.0 mi Calm Calm - N/A   Clear
5:53 AM 28.9 °F 25.2 °F 26.1 °F 89% 30.05 in 10.0 mi SSE 3.5 mph - N/A   Partly Cloudy
6:22 AM 30.2 °F - 26.6 °F 86% 30.09 in 10.0 mi Calm Calm - N/A   Mostly Cloudy
6:53 AM 30.0 °F - 28.0 °F 92% 30.07 in 10.0 mi Calm Calm - N/A   Mostly Cloudy
7:53 AM 33.1 °F 30.0 °F 28.9 °F 85% 30.09 in 10.0 mi East 3.5 mph - N/A   Overcast
8:30 AM 33.8 °F - 28.4 °F 81% 30.14 in 10.0 mi Calm Calm - N/A   Scattered Clouds
8:53 AM 34.0 °F - 28.9 °F 82% 30.11 in 10.0 mi Calm Calm - N/A   Mostly Cloudy
9:53 AM 37.0 °F - 30.0 °F 76% 30.12 in 10.0 mi Calm Calm - N/A   Overcast
10:53 AM 42.1 °F - 30.9 °F 65% 30.10 in 10.0 mi Calm Calm - N/A   Partly Cloudy
11:53 AM 46.0 °F 43.9 °F 34.0 °F 63% 30.09 in 10.0 mi Variable 4.6 mph - N/A   Scattered Clouds
12:53 PM 48.0 °F - 36.0 °F 63% 30.08 in 10.0 mi SW 9.2 mph - N/A   Clear
1:53 PM 48.9 °F - 36.0 °F 61% 30.05 in 10.0 mi South 5.8 mph - N/A   Clear
2:53 PM 51.1 °F - 36.0 °F 56% 30.04 in 10.0 mi SSW 6.9 mph 16.1 mph N/A   Clear
3:53 PM 51.1 °F - 32.0 °F 48% 30.03 in 10.0 mi Variable 3.5 mph - N/A   Clear
4:53 PM 50.0 °F - 28.0 °F 43% 30.05 in 10.0 mi West 12.7 mph - N/A   Clear
6:53 PM 45.0 °F 41.2 °F 27.0 °F 49% 30.11 in 10.0 mi West 6.9 mph - N/A   Clear
7:53 PM 42.1 °F - 24.1 °F 49% 30.13 in 10.0 mi Calm Calm - N/A   Clear
8:53 PM 37.9 °F 35.5 °F 28.0 °F 68% 30.16 in 10.0 mi ENE 3.5 mph - N/A   Partly Cloudy
9:53 PM 37.0 °F 32.4 °F 28.0 °F 70% 30.17 in 10.0 mi ENE 5.8 mph - N/A   Clear
10:53 PM 32.0 °F 27.5 °F 27.0 °F 82% 30.17 in 10.0 mi ENE 4.6 mph - N/A   Clear
11:53 PM 32.0 °F 24.8 °F 27.0 °F 82% 30.17 in 10.0 mi ENE 8.1 mph - N/A   Clear